Location: Great Malvern
(52.1167°N, 2.3167°W)
Time: 03:49:13
(UTC+00:00)

USA 238 DEB - Pass Details

Date: 18 September 2020
Orbit: 1006 x 1206 km, 63.4° (Epoch: 15 October)

Event Time Altitude Azimuth Distance (km) Brightness Sun altitude
Rises 19:29:50 0° 313° (NW) 3,913 8.0 -11.9°
Reaches altitude 10° 19:32:27 10° 314° (NW) 2,982 7.1 -12.3°
Maximum altitude 19:39:37 82° 43° (NE) 1,167 3.9 -13.3°
Enters shadow 19:45:39 17° 130° (SE) 2,605 5.1 -14.2°
